Overview Statistics Trail Chart Weather Telemetry Raw packets
 

This is the latest recevied weather packets stored in our database for station/object WL7CLI. If no packets are shown the sender has not sent any weather packets the latest 10 day(s).

<< 54 55 56 57 58 59 60 >>
Time Temp. Humidity Pressure Rain* Wind** Luminosity Snow
1788192905 30.56° C 66% 1010.4 hPa 0 mm - - -
1788192032 30° C 64% 1010.5 hPa 0 mm - - -
1788191884 30° C 64% 1012.2 hPa 0 mm - - -
1788191707 30° C 65% 1010.1 hPa 0 mm - - -
1788190834 29.44° C 65% 1010.6 hPa 0 mm - - -
1788190507 28.89° C 65% 1010.6 hPa 0 mm - - -
1788190084 28.89° C 67% 1012.7 hPa 0 mm - - -
1788189633 28.33° C 67% 1010.8 hPa 0 mm - - -
1788189307 28.33° C 67% 1010.7 hPa 0 mm - - -
1788188433 27.78° C 67% 1010.8 hPa 0 mm - - -
1788188284 27.78° C 66% 1012.6 hPa 0 mm - - -
1788188106 27.78° C 65% 1010.6 hPa 0 mm - - -
1788187233 27.78° C 67% 1010.5 hPa 0 mm - - -
1788186909 27.22° C 68% 1010.4 hPa 0 mm - - -
1788186484 27.22° C 68% 1012.3 hPa 0 mm - - -
1788186032 27.22° C 67% 1010.5 hPa 0 mm - - -
1788185705 27.22° C 69% 1010.5 hPa 0 mm - - -
1788184832 26.67° C 68% 1010.4 hPa 0 mm - - -
1788184684 26.67° C 68% 1012.1 hPa 0 mm - - -
1788184504 26.67° C 68% 1010.3 hPa 0 mm - - -
1788183634 26.11° C 70% 1010.4 hPa 0 mm - - -
1788183306 26.11° C 69% 1010.2 hPa 0 mm - - -
1788182884 26.11° C 70% 1012 hPa 0 mm - - -
1788182433 25° C 70% 1010.1 hPa 0 mm - - -
1788182108 25° C 70% 1010 hPa 0 mm - - -

* Rain latest hour (hover to see other rain measurements)
** Current wind speed in m/s (hover to see current wind gust speed)